This is the latest recevied weather packets stored in our database for station/object SM6PGP-2. If no packets are shown the sender has not sent any weather packets the latest 1 day(s).
| Time | Temp. | Humidity | Pressure | Rain* | Wind** | Luminosity | Snow |
|---|---|---|---|---|---|---|---|
| 1777974109 | 12.22° C | - | - | - | 1.34 m/s, 324° | - | - |
| 1777973803 | 12.22° C | - | - | - | 4.02 m/s, 270° | - | - |
| 1777973499 | 12.22° C | - | - | - | 2.24 m/s, 279° | - | - |
| 1777973193 | 12.78° C | - | - | - | 4.92 m/s, 270° | - | - |
| 1777972888 | 12.78° C | - | - | - | 1.79 m/s, 351° | - | - |
| 1777972583 | 12.22° C | - | - | - | 1.34 m/s, 333° | - | - |
| 1777972277 | 12.22° C | - | - | - | 1.34 m/s, 324° | - | - |
| 1777971973 | 11.67° C | - | - | - | 3.58 m/s, 345° | - | - |
| 1777971667 | 12.22° C | - | - | - | 3.58 m/s, 279° | - | - |
| 1777971362 | 12.22° C | - | - | - | 3.13 m/s, 283° | - | - |
| 1777971057 | 12.78° C | - | - | - | 2.24 m/s, 261° | - | - |
| 1777970751 | 12.22° C | - | - | - | 1.79 m/s, 306° | - | - |
| 1777970447 | 12.22° C | - | - | - | 2.24 m/s, 320° | - | - |
| 1777970141 | 12.22° C | - | - | - | 1.79 m/s, 4° | - | - |
| 1777969836 | 12.22° C | - | - | - | 2.24 m/s, 288° | - | - |
| 1777969531 | 12.22° C | - | - | - | 4.47 m/s, 270° | - | - |
| 1777969225 | 12.22° C | - | - | - | 3.13 m/s, 310° | - | - |
| 1777968921 | 12.22° C | - | - | - | 3.13 m/s, 292° | - | - |
| 1777968615 | 12.22° C | - | - | - | 3.58 m/s, 351° | - | - |
| 1777968310 | 11.67° C | - | - | - | 4.02 m/s, 310° | - | - |
| 1777968005 | 11.67° C | - | - | - | 1.79 m/s, 306° | - | - |
| 1777967699 | 12.22° C | - | - | - | 4.02 m/s, 328° | - | - |
| 1777967395 | 11.67° C | - | - | - | 1.79 m/s, 22° | - | - |
| 1777967089 | 12.22° C | - | - | - | 3.13 m/s, 288° | - | - |
| 1777966784 | 12.22° C | - | - | - | 4.02 m/s, 279° | - | - |
* Rain since midnight (hover to see other rain measurements)
** Current wind speed in m/s (hover to see current wind gust speed)